Time,TemperatureF,DewpointF,PressureIn,WindDirection,WindDirectionDegrees,WindSpeedMPH,WindSpeedGustMPH,Humidity,HourlyPrecipIn,Conditions,Clouds,dailyrainin,SoftwareType,DateUTC
2013-01-30 00:22:00,13.0,-99.9,-100.00,ENE,77,0.0,5.0,-999,-99.99,,,-99.99,,2013-01-30 09:22:00,
2013-01-30 00:32:00,13.0,-99.9,-100.00,ENE,77,0.0,5.0,-999,-99.99,,,-99.99,,2013-01-30 09:32:00,
2013-01-30 00:42:00,13.0,-99.9,-100.00,ENE,77,0.0,5.0,-999,-99.99,,,-99.99,,2013-01-30 09:42:00,
2013-01-30 00:52:00,13.0,-99.9,-100.00,ENE,77,0.0,5.0,-999,-99.99,,,-99.99,,2013-01-30 09:52:00,
2013-01-30 01:22:00,13.0,-99.9,-100.00,NE,39,4.0,7.0,-999,-99.99,,,-99.99,,2013-01-30 10:22:00,
2013-01-30 01:32:00,13.0,-99.9,-100.00,NE,39,4.0,7.0,-999,-99.99,,,-99.99,,2013-01-30 10:32:00,
2013-01-30 01:42:00,13.0,-99.9,-100.00,NE,39,4.0,7.0,-999,-99.99,,,-99.99,,2013-01-30 10:42:00,
2013-01-30 01:52:00,13.0,-99.9,-100.00,NE,39,4.0,7.0,-999,-99.99,,,-99.99,,2013-01-30 10:52:00,
2013-01-30 02:22:00,14.0,-99.9,-100.00,North,0,0.0,5.0,-999,-99.99,,,-99.99,,2013-01-30 11:22:00,
2013-01-30 02:33:00,14.0,-99.9,-100.00,North,0,0.0,5.0,-999,-99.99,,,-99.99,,2013-01-30 11:33:00,
2013-01-30 02:42:00,14.0,-99.9,-100.00,North,0,0.0,5.0,-999,-99.99,,,-99.99,,2013-01-30 11:42:00,
2013-01-30 02:52:00,14.0,-99.9,-100.00,North,0,0.0,5.0,-999,-99.99,,,-99.99,,2013-01-30 11:52:00,
2013-01-30 03:22:00,14.0,-99.9,-100.00,ENE,74,7.0,7.0,-999,-99.99,,,-99.99,,2013-01-30 12:22:00,
2013-01-30 03:33:00,14.0,-99.9,-100.00,ENE,74,7.0,7.0,-999,-99.99,,,-99.99,,2013-01-30 12:33:00,
2013-01-30 03:43:00,14.0,-99.9,-100.00,ENE,74,7.0,7.0,-999,-99.99,,,-99.99,,2013-01-30 12:43:00,
2013-01-30 04:23:00,14.0,-99.9,-100.00,NNE,25,5.0,7.0,-999,-99.99,,,-99.99,,2013-01-30 13:23:00,
2013-01-30 04:33:00,14.0,-99.9,-100.00,NNE,25,5.0,7.0,-999,-99.99,,,-99.99,,2013-01-30 13:33:00,
2013-01-30 04:43:00,14.0,-99.9,-100.00,NNE,25,5.0,7.0,-999,-99.99,,,-99.99,,2013-01-30 13:43:00,
2013-01-30 04:53:00,14.0,-99.9,-100.00,NNE,25,5.0,7.0,-999,-99.99,,,-99.99,,2013-01-30 13:53:00,
2013-01-30 05:23:00,15.0,-99.9,-100.00,NNE,15,2.0,5.0,-999,-99.99,,,-99.99,,2013-01-30 14:23:00,
2013-01-30 05:33:00,15.0,-99.9,-100.00,NNE,15,2.0,5.0,-999,-99.99,,,-99.99,,2013-01-30 14:33:00,
2013-01-30 05:43:00,15.0,-99.9,-100.00,NNE,15,2.0,5.0,-999,-99.99,,,-99.99,,2013-01-30 14:43:00,
2013-01-30 05:53:00,15.0,-99.9,-100.00,NNE,15,2.0,5.0,-999,-99.99,,,-99.99,,2013-01-30 14:53:00,
2013-01-30 05:54:00,14.0,-99.9,-100.00,NNE,26,0.0,3.0,-999,-99.99,,,-99.99,,2013-01-30 14:54:00,
2013-01-30 06:24:00,14.0,-99.9,-100.00,NNE,26,0.0,3.0,-999,-99.99,,,-99.99,,2013-01-30 15:24:00,
2013-01-30 06:34:00,14.0,-99.9,-100.00,NNE,26,0.0,3.0,-999,-99.99,,,-99.99,,2013-01-30 15:34:00,
2013-01-30 06:43:00,14.0,-99.9,-100.00,NNE,26,0.0,3.0,-999,-99.99,,,-99.99,,2013-01-30 15:43:00,
2013-01-30 07:23:00,15.0,-99.9,-100.00,North,352,5.0,5.0,-999,-99.99,,,-99.99,,2013-01-30 16:23:00,
2013-01-30 07:33:00,15.0,-99.9,-100.00,North,352,5.0,5.0,-999,-99.99,,,-99.99,,2013-01-30 16:33:00,
2013-01-30 07:42:00,15.0,-99.9,-100.00,North,352,5.0,5.0,-999,-99.99,,,-99.99,,2013-01-30 16:42:00,
2013-01-30 07:53:00,15.0,-99.9,-100.00,North,352,5.0,5.0,-999,-99.99,,,-99.99,,2013-01-30 16:53:00,
2013-01-30 08:23:00,15.0,-99.9,-100.00,North,1,0.0,5.0,-999,-99.99,,,-99.99,,2013-01-30 17:23:00,
2013-01-30 08:34:00,15.0,-99.9,-100.00,North,1,0.0,5.0,-999,-99.99,,,-99.99,,2013-01-30 17:34:00,
2013-01-30 08:43:00,15.0,-99.9,-100.00,North,1,0.0,5.0,-999,-99.99,,,-99.99,,2013-01-30 17:43:00,
2013-01-30 08:53:00,15.0,-99.9,-100.00,North,1,0.0,5.0,-999,-99.99,,,-99.99,,2013-01-30 17:53:00,
2013-01-30 09:24:00,16.0,-99.9,-100.00,East,84,3.0,5.0,-999,-99.99,,,-99.99,,2013-01-30 18:24:00,
2013-01-30 09:33:00,16.0,-99.9,-100.00,East,84,3.0,5.0,-999,-99.99,,,-99.99,,2013-01-30 18:33:00,
2013-01-30 09:43:00,16.0,-99.9,-100.00,East,84,3.0,5.0,-999,-99.99,,,-99.99,,2013-01-30 18:43:00,
2013-01-30 09:53:00,16.0,-99.9,-100.00,East,84,3.0,5.0,-999,-99.99,,,-99.99,,2013-01-30 18:53:00,
2013-01-30 10:23:00,15.0,-99.9,-100.00,NW,312,0.0,3.0,-999,-99.99,,,-99.99,,2013-01-30 19:23:00,
2013-01-30 10:33:00,15.0,-99.9,-100.00,NW,312,0.0,3.0,-999,-99.99,,,-99.99,,2013-01-30 19:33:00,
2013-01-30 10:44:00,15.0,-99.9,-100.00,NW,312,0.0,3.0,-999,-99.99,,,-99.99,,2013-01-30 19:44:00,
2013-01-30 10:53:00,15.0,-99.9,-100.00,NW,312,0.0,3.0,-999,-99.99,,,-99.99,,2013-01-30 19:53:00,
2013-01-30 11:22:00,17.0,-99.9,-100.00,NNE,14,0.0,5.0,-999,-99.99,,,-99.99,,2013-01-30 20:22:00,
2013-01-30 11:33:00,17.0,-99.9,-100.00,NNE,14,0.0,5.0,-999,-99.99,,,-99.99,,2013-01-30 20:33:00,
2013-01-30 11:42:00,17.0,-99.9,-100.00,NNE,14,0.0,5.0,-999,-99.99,,,-99.99,,2013-01-30 20:42:00,
2013-01-30 11:53:00,17.0,-99.9,-100.00,NNE,14,0.0,5.0,-999,-99.99,,,-99.99,,2013-01-30 20:53:00,
2013-01-30 12:23:00,18.0,-99.9,-100.00,WNW,303,0.0,4.0,-999,-99.99,,,-99.99,,2013-01-30 21:23:00,
2013-01-30 12:32:00,18.0,-99.9,-100.00,WNW,303,0.0,4.0,-999,-99.99,,,-99.99,,2013-01-30 21:32:00,
2013-01-30 12:43:00,18.0,-99.9,-100.00,WNW,303,0.0,4.0,-999,-99.99,,,-99.99,,2013-01-30 21:43:00,
2013-01-30 12:53:00,18.0,-99.9,-100.00,WNW,303,0.0,4.0,-999,-99.99,,,-99.99,,2013-01-30 21:53:00,
2013-01-30 13:23:00,19.0,-99.9,-100.00,NNW,328,5.0,6.0,-999,-99.99,,,-99.99,,2013-01-30 22:23:00,
2013-01-30 13:33:00,19.0,-99.9,-100.00,NNW,328,5.0,6.0,-999,-99.99,,,-99.99,,2013-01-30 22:33:00,
2013-01-30 13:43:00,19.0,-99.9,-100.00,NNW,328,5.0,6.0,-999,-99.99,,,-99.99,,2013-01-30 22:43:00,
2013-01-30 13:53:00,19.0,-99.9,-100.00,NNW,328,5.0,6.0,-999,-99.99,,,-99.99,,2013-01-30 22:53:00,
2013-01-30 14:23:00,20.0,-99.9,-100.00,WNW,292,5.0,5.0,-999,-99.99,,,-99.99,,2013-01-30 23:23:00,
2013-01-30 14:33:00,20.0,-99.9,-100.00,WNW,292,5.0,5.0,-999,-99.99,,,-99.99,,2013-01-30 23:33:00,
2013-01-30 14:43:00,20.0,-99.9,-100.00,WNW,292,5.0,5.0,-999,-99.99,,,-99.99,,2013-01-30 23:43:00,
2013-01-30 14:52:00,20.0,-99.9,-100.00,WNW,292,5.0,5.0,-999,-99.99,,,-99.99,,2013-01-30 23:52:00,
2013-01-30 15:22:00,22.0,-99.9,-100.00,NNE,14,0.0,0.0,-999,-99.99,,,-99.99,,2013-01-31 00:22:00,
2013-01-30 15:32:00,22.0,-99.9,-100.00,NNE,14,0.0,0.0,-999,-99.99,,,-99.99,,2013-01-31 00:32:00,
2013-01-30 15:43:00,22.0,-99.9,-100.00,NNE,14,0.0,0.0,-999,-99.99,,,-99.99,,2013-01-31 00:43:00,
2013-01-30 15:53:00,22.0,-99.9,-100.00,NNE,14,0.0,0.0,-999,-99.99,,,-99.99,,2013-01-31 00:53:00,
2013-01-30 16:22:00,21.0,-99.9,-100.00,NNE,19,0.0,5.0,-999,-99.99,,,-99.99,,2013-01-31 01:22:00,
2013-01-30 16:32:00,21.0,-99.9,-100.00,NNE,19,0.0,5.0,-999,-99.99,,,-99.99,,2013-01-31 01:32:00,
2013-01-30 16:42:00,21.0,-99.9,-100.00,NNE,19,0.0,5.0,-999,-99.99,,,-99.99,,2013-01-31 01:42:00,
2013-01-30 16:53:00,21.0,-99.9,-100.00,NNE,19,0.0,5.0,-999,-99.99,,,-99.99,,2013-01-31 01:53:00,
2013-01-30 17:22:00,22.0,-99.9,-100.00,NNE,16,0.0,0.0,-999,-99.99,,,-99.99,,2013-01-31 02:22:00,
2013-01-30 17:32:00,22.0,-99.9,-100.00,NNE,16,0.0,0.0,-999,-99.99,,,-99.99,,2013-01-31 02:32:00,
2013-01-30 17:42:00,22.0,-99.9,-100.00,NNE,16,0.0,0.0,-999,-99.99,,,-99.99,,2013-01-31 02:42:00,
2013-01-30 17:52:00,22.0,-99.9,-100.00,NNE,16,0.0,0.0,-999,-99.99,,,-99.99,,2013-01-31 02:52:00,
2013-01-30 18:22:00,22.0,-99.9,-100.00,NE,45,0.0,0.0,-999,-99.99,,,-99.99,,2013-01-31 03:22:00,
2013-01-30 18:33:00,22.0,-99.9,-100.00,NE,45,0.0,0.0,-999,-99.99,,,-99.99,,2013-01-31 03:33:00,
2013-01-30 18:42:00,22.0,-99.9,-100.00,NE,45,0.0,0.0,-999,-99.99,,,-99.99,,2013-01-31 03:42:00,
2013-01-30 18:52:00,22.0,-99.9,-100.00,NE,45,0.0,0.0,-999,-99.99,,,-99.99,,2013-01-31 03:52:00,
2013-01-30 19:22:00,23.0,-99.9,-100.00,ENE,63,0.0,7.0,-999,-99.99,,,-99.99,,2013-01-31 04:22:00,
2013-01-30 19:32:00,23.0,-99.9,-100.00,ENE,63,0.0,7.0,-999,-99.99,,,-99.99,,2013-01-31 04:32:00,
2013-01-30 19:42:00,23.0,-99.9,-100.00,ENE,63,0.0,7.0,-999,-99.99,,,-99.99,,2013-01-31 04:42:00,
2013-01-30 19:52:00,23.0,-99.9,-100.00,ENE,63,0.0,7.0,-999,-99.99,,,-99.99,,2013-01-31 04:52:00,
2013-01-30 20:22:00,23.0,-99.9,-100.00,North,9,0.0,0.0,-999,-99.99,,,-99.99,,2013-01-31 05:22:00,
2013-01-30 20:32:00,23.0,-99.9,-100.00,North,9,0.0,0.0,-999,-99.99,,,-99.99,,2013-01-31 05:32:00,
2013-01-30 20:42:00,23.0,-99.9,-100.00,North,9,0.0,0.0,-999,-99.99,,,-99.99,,2013-01-31 05:42:00,
2013-01-30 20:52:00,23.0,-99.9,-100.00,North,9,0.0,0.0,-999,-99.99,,,-99.99,,2013-01-31 05:52:00,